Reflectivity
18 18 18 17 14 -11 -4 16 -6 -20 -20 -20 -20 -20 -20 -20 -20 -20 -20 -20 -20 -20 -20 -20 -20 -20 -20 -20 -20 -20 -20 -20 -20 -20 -20 -20 -20 -20 -20 -20 -20 -20 -20 -20 -20
18 14 12 19 13 -12 -5 -20 -1 -20 -20 -20 -20 -20 -20 -20 -20 -20 -20 -20 -20 -20 -20 -20 -20 -20 -20 -20 -20 -20 -20 -20 -20 -20 -20 -20 -20 -20 -20 -20 -20 -20 -20 -20 -20
20 19 11 -20 -20 -20 -20 -20 -8 -18 -20 -20 -20 -20 -20 -20 -20 -20 -20 -20 -20 -20 -20 -20 -20 -20 -20 -20 -20 -20 -20 -20 -20 -20 -20 -20 -20 -20 -20 -20 -20 -20 -20 -20 -20
19 15 3 -20 -20 -20 -20 -20 -20 -20 -20 -20 -20 -20 -20 -20 -20 -20 -20 -20 -20 -20 -20 -20 -20 -20 -20 -20 -20 -20 -20 -20 -20 -20 -20 -20 -20 -20 -20 -20 -20 -20 -20 -20 -20
17 17 -18 -20 -20 -20 -20 -20 -20 -20 -20 -20 -20 -20 -20 -20 -20 -20 -20 -20 -20 -20 -20 -20 -20 -20 -20 -20 -20 -20 -20 -20 -20 -20 -20 -20 -20 -20 -20 -20 -20 -20 -20 -20 -20
18 -17 -20 -20 -20 -20 -20 -20 -20 -20 -20 -20 -20 -20 -20 -20 -20 -20 -20 -20 -20 -20 -20 -20 -20 -20 -20 -20 -20 -20 -20 -20 -20 -20 -20 -20 -20 -20 -20 -20 -20 -20 -20 -20 -20
-20 -20 -20 -20 -20 -20 -20 -20 -20 -20 -20 -20 -20 -20 -20 -20 -20 -20 -20 -20 -20 -20 -20 -20 -20 -20 -20 -20 -20 -20 -20 -20 -20 -20 -20 -20 -20 -20 -20 -20 -20 -20 -20 -20 -20
-20 -20 -20 -20 -20 -20 -20 -20 -20 -20 -20 -20 -20 -20 -20 -20 -20 -20 -20 -20 -20 -20 -20 -20 -20 -20 -20 -20 -20 -20 -20 -20 -20 -20 -20 -20 -20 -20 -20 -20 -20 -20 -20 -20 -20
-6 -20 -20 -20 -20 -20 -20 -20 -20 -20 -20 -20 -20 -20 -20 -20 -20 -20 -20 -20 -20 -20 -20 -20 -20 -20 -20 -20 -20 -20 -20 -20 -20 -20 -20 -20 -20 -20 -20 -20 -20 -20 -20 -20 -20
-16 -20 -20 -20 -20 -20 -20 -20 -20 -20 -20 -20 -20 -20 -20 -20 -20 -20 -20 -20 -20 -20 -20 -20 -20 -20 -20 -20 -20 -20 -20 -20 -20 -20 -20 -20 -20 -20 -20 -20 -20 -20 -20 -20 -20
-12 -20 -20 -20 -20 -20 -20 -20 -20 -20 -20 -20 -20 -20 -20 -20 -20 -20 -20 -20 -20 -20 -20 -20 -20 -20 -20 -20 -20 -20 -20 -20 -20 -20 -20 -20 -20 -20 -20 -20 -20 -20 -20 -20 -20
-2 -20 -20 -20 -20 -20 -20 -20 -20 -20 -20 -20 -20 -20 -20 -20 -20 -20 -20 -20 -20 -20 -20 -20 -20 -20 -20 -20 -20 -20 -20 -20 -20 -20 -20 -20 -20 -20 -20 -20 -20 -20 -20 -20 -20
1 2 -20 -20 -20 -20 -20 -20 -20 -20 -20 -18 -20 -20 -20 -20 -20 -20 -20 -20 -20 -20 -20 -20 -20 -20 -20 -20 -20 -20 -20 -20 -20 -20 -20 -20 -20 -20 -20 -20 -20 -20 -20 -20 -20
-8 -5 -20 -20 -20 -20 -20 -20 -20 -20 -20 -20 -20 -20 -20 -20 -20 -20 -20 -20 -20 -20 -20 -20 -20 -20 -20 -20 -20 -20 -20 -20 -20 -20 -20 -20 -20 -20 -20 -20 -20 -20 -20 -20 -20
-20 9 -20 -20 -20 -20 -20 -20 -20 -20 -20 -20 -20 -20 -20 -20 -20 -20 -20 -20 -20 -20 -20 -20 -20 -20 -20 -20 -20 -20 -20 -20 -20 -20 -20 -20 -20 -20 -20 -20 -20 -20 -20 -20 -20
2 -9 -20 -20 -20 -20 -20 -20 -20 -20 -20 -20 -20 -20 -20 -20 -20 -20 -20 -20 -20 -20 -20 -20 -20 -20 -20 -20 -20 -20 -20 -20 -20 -20 -20 -20 -20 -20 -20 -11 -9 -12 -17 -11 -19
-5 -20 -20 -20 -20 -20 -20 -20 -20 -20 -20 -20 -20 -20 -20 -20 -20 -20 -20 -20 -20 -20 -20 -20 -20 -20 -20 -20 -20 -20 -20 -20 -20 -20 -20 -20 -20 -20 -20 -4 -2 -11 -19 6 14
-20 -20 -20 -20 -20 -20 -20 -20 -20 -20 -20 -20 -20 -20 -20 -20 -20 -20 -20 -20 -20 -20 -20 -20 -20 -20 -20 -20 -20 -20 -20 -20 -20 -20 -20 -20 -20 -20 -20 -20 -19 -11 -12 -17 6
-20 -20 -20 -20 -20 -20 -20 -20 -20 -20 -20 -20 -20 -20 -20 -20 -20 -20 -20 -20 -20 -20 -20 -20 -20 -20 -20 -20 -20 -20 -20 -20 -20 -20 -20 -20 -20 -20 -20 -20 -20 -20 -17 -20 -15
-20 -20 -20 -20 -20 -20 -20 -20 -20 -20 -20 -20 -20 -20 -20 -20 -20 -20 -20 -20 -20 -20 -20 -20 -20 -20 -20 -20 -20 -20 -20 -20 -20 -20 -20 -20 -20 -20 -20 -20 -11 3 -4 -12 -16
-20 -20 -20 -20 -20 -20 -20 -20 -20 -20 -20 -20 -20 -20 -20 -20 -20 -20 -20 -20 -20 -20 -20 -20 -20 -20 -20 -20 -20 -20 -20 -20 -20 -20 -20 -20 -20 -20 -20 -20 -17 -5 -7 -1 -1
-20 -20 -20 -20 -20 -20 -20 -20 -20 -20 -20 -20 -20 -20 -20 -20 -20 -20 -16 -20 -20 -20 -20 -20 -20 -20 -20 -20 -20 -20 -20 -20 -20 -20 -20 -20 -20 -20 -20 -20 -4 -1 -20 -20 -20
-20 -20 -20 -20 -20 -20 -20 -20 -20 -20 -20 -20 -20 -20 -20 -20 1 -20 -10 -1 -20 -18 -18 -12 -2 -20 -20 -20 -20 -20 -20 -20 -20 -20 -20 -20 -20 -20 -20 -20 -20 -20 -20 -20 -20
-20 -20 -20 -20 -20 -20 -20 -20 -20 -20 -20 -20 -20 -20 -20 -20 -20 -6 -20 11 -20 3 7 7 -10 -20 -20 -15 7 -9 -20 -5 8 1 -20 -20 -20 -20 -20 -20 -20 -20 -20 -20 -20
-20 -20 -20 -20 -20 -20 -20 -20 -20 -20 -20 -20 -20 -3 14 11 -20 -15 -19 -17 -19 10 6 17 -0 -20 -20 -3 -1 -5 1 7 -17 -20 2 -20 -20 -20 -20 -20 -20 -20 -20 -20 -20
-20 -20 -20 -20 -20 -20 -20 -20 -19 -11 -20 4 -0 -20 -20 6 -5 -11 -20 -20 -20 -20 0 12 10 -9 -20 -20 -20 -20 -20 -20 -12 -20 -20 -20 -20 -20 -20 -20 -20 -20 -20 -20 -20
-20 -20 -20 -20 -20 -20 -1 -19 -20 -20 -13 -13 -20 -20 -20 -20 -20 -20 -20 -20 -20 -5 5 7 7 2 -18 -20 -20 -20 0 7 15 13 -1 -3 -8 -16 -20 -20 -20 -19 -16 -20 -20
Wind_Speed
20 20 19 18 17 16 15 15 14 12 12 12 11 11 12 14 14 3 5 6 9 16 16 10 3 5 1 2 1 3 2 3 5 5 5 5 5 3 2 7 5 4 4 8 16
21 21 20 19 19 18 16 14 14 12 12 11 11 11 11 12 2 6 8 12 13 13 5 7 5 7 2 1 1 4 4 5 2 1 5 5 5 6 5 5 4 9 10 11 11
22 22 21 20 20 18 16 15 13 12 11 11 11 11 11 8 1 2 13 13 14 10 3 3 5 2 2 3 3 3 4 4 3 4 2 7 3 2 11 4 8 13 15 11 9
22 22 22 20 19 18 17 15 14 12 11 10 11 11 12 1 1 2 13 13 14 11 6 4 3 1 2 4 2 3 5 4 2 5 3 4 6 4 4 2 7 19 17 9 11
23 24 22 19 18 17 16 15 13 12 11 10 10 10 5 1 1 4 12 10 8 9 6 5 2 2 2 2 3 2 4 6 3 6 5 3 2 3 3 5 16 17 15 12 10
22 23 22 20 18 17 16 15 14 12 11 9 8 9 0 0 4 4 7 5 6 6 6 6 3 5 1 4 2 2 5 5 4 4 3 1 2 1 5 7 14 15 11 9 11
23 23 21 19 19 17 17 14 12 10 7 7 7 4 3 3 3 5 6 3 1 3 4 4 5 4 4 2 3 5 3 2 3 4 1 1 5 9 6 11 13 11 10 9 9
23 24 22 20 20 17 15 12 7 7 6 6 6 2 1 2 2 4 6 5 7 1 1 4 5 2 3 1 3 1 3 1 1 6 0 4 8 4 10 13 12 11 9 9 8
24 24 23 20 20 18 18 10 7 5 6 6 3 2 2 2 1 4 1 1 6 3 3 2 2 2 3 5 4 2 3 5 2 7 3 4 4 3 7 8 9 9 8 10 8
25 25 24 20 20 18 20 11 5 6 4 5 3 3 2 3 4 5 3 3 3 3 1 1 4 3 4 5 5 3 3 4 3 2 3 4 8 3 6 7 9 9 9 9 10
25 25 24 20 19 18 11 3 4 4 8 2 2 1 2 6 2 2 3 3 2 1 2 2 6 2 2 2 4 4 3 2 2 2 2 8 10 9 11 9 10 9 10 10 11
25 24 25 19 18 17 5 5 2 1 3 2 2 2 2 2 2 6 10 3 3 1 3 7 3 0 2 1 1 2 1 3 2 2 1 4 11 11 10 13 16 15 11 13 9
24 24 26 20 17 5 5 2 3 5 1 2 1 1 1 2 2 5 6 3 3 4 5 4 4 1 1 3 3 2 1 2 1 6 4 5 10 8 8 10 10 9 10 10 14
24 24 24 22 3 2 3 3 4 2 3 2 2 2 1 1 1 0 3 1 3 2 3 4 1 1 0 3 1 2 3 3 3 3 4 3 9 7 4 3 9 11 11 10 10
23 26 19 10 3 3 3 4 4 2 4 1 2 2 0 1 2 2 1 2 2 2 5 1 2 1 1 2 2 2 1 2 1 2 5 3 1 10 2 4 4 3 10 8 9
23 23 12 4 2 1 3 4 3 4 4 1 1 1 1 2 2 4 1 3 2 1 5 3 2 3 1 2 2 1 1 1 2 2 2 6 5 7 3 4 2 4 5 9 8
25 16 2 1 1 1 2 3 5 5 6 6 3 4 3 3 3 2 1 4 2 5 2 2 1 1 3 2 1 5 3 3 5 2 7 4 1 11 6 4 5 12 9 8 7
23 5 2 1 1 3 3 4 5 4 4 4 5 9 3 3 3 3 3 1 2 3 2 3 6 2 5 3 5 2 5 2 4 2 4 4 7 6 3 5 5 6 8 7 6
13 3 1 2 3 3 4 7 1 3 4 7 9 3 2 2 2 4 4 4 5 3 5 3 4 1 3 3 3 4 1 2 1 1 3 4 7 3 3 5 6 7 6 4 3
2 3 3 4 4 3 7 3 2 3 4 4 2 4 4 6 6 7 3 3 4 2 3 3 4 2 2 3 5 5 2 4 3 1 4 6 5 3 2 3 4 5 7 6 3
4 4 4 4 3 7 5 2 2 0 4 4 4 5 4 4 5 4 5 3 3 3 2 5 5 4 3 3 7 2 2 3 1 3 4 2 6 4 3 9 10 5 6 6 6
3 5 4 0 7 3 3 3 2 3 2 3 1 3 3 5 5 4 4 5 4 4 1 2 5 3 6 3 4 3 5 5 3 5 0 2 9 2 3 4 6 2 3 3 4
3 2 5 7 5 4 7 6 3 6 5 5 4 1 4 4 4 8 3 3 5 3 0 2 1 3 6 3 0 2 3 3 4 2 5 4 7 4 5 4 4 4 3 4 5
4 6 6 6 1 3 4 4 6 4 2 4 6 3 6 4 5 5 8 1 6 4 12 2 4 8 7 4 3 3 3 4 3 3 4 10 8 6 4 3 3 3 7 8 8
6 2 1 5 5 6 2 6 6 7 6 6 5 7 6 4 10 8 4 8 4 5 4 5 7 7 11 8 10 13 13 9 10 10 11 6 10 8 8 6 7 5 3 4 4
4 4 5 4 4 7 9 7 9 8 3 3 11 12 6 5 3 12 11 9 6 4 4 3 2 2 2 7 10 12 11 13 11 14 13 16 20 11 10 1 4 5 3 5 4
4 3 1 5 5 5 3 5 10 8 3 14 9 6 6 7 12 19 17 17 13 12 4 4 2 2 3 3 5 1 6 7 5 4 3 3 8 8 3 3 2 5 3 4 6
Wind_Direction
356 354 351 348 345 339 337 334 335 332 327 331 333 336 340 341 326 8 42 306 323 326 332 302 279 271 253 237 48 22 69 205 231 231 157 180 135 48 73 104 61 16 101 145 144
354 352 348 344 339 336 331 329 326 325 321 318 325 332 336 344 311 57 335 337 332 335 345 350 357 334 343 178 343 123 151 219 347 85 182 164 118 134 122 129 72 85 98 121 141
353 350 346 343 339 334 330 325 326 319 317 316 315 324 329 344 294 11 336 340 334 329 258 285 279 242 192 141 209 192 200 147 357 348 42 139 103 110 126 228 179 165 153 153 140
353 351 347 344 339 335 331 326 322 317 314 314 314 315 322 217 63 328 349 341 339 333 313 286 281 233 210 183 110 195 46 88 27 358 18 105 149 167 184 239 177 150 151 143 145
352 350 348 344 341 336 331 324 318 317 313 312 311 313 349 121 53 296 347 338 338 346 20 345 355 316 293 134 116 134 127 66 95 57 54 12 125 220 125 56 121 134 146 148 145
354 350 347 342 340 336 333 323 318 314 303 301 305 317 216 257 257 314 334 341 350 13 14 19 1 300 325 39 79 70 84 121 111 71 38 50 152 217 158 125 124 139 147 151 146
352 350 347 341 338 335 337 330 322 327 308 289 294 297 54 182 286 323 346 307 310 33 359 349 337 27 3 62 1 121 68 20 161 158 119 332 259 224 167 148 141 148 155 151 154
352 349 345 340 337 331 331 325 315 333 325 295 299 318 147 221 290 340 342 349 359 293 9 302 343 73 57 103 52 114 96 27 127 139 231 116 258 254 157 153 162 162 166 162 157
351 348 345 337 336 330 329 315 299 313 301 288 338 177 4 154 351 302 343 325 295 272 222 276 358 93 58 94 26 309 220 201 206 190 124 191 275 359 148 158 169 178 172 169 163
349 348 345 336 334 328 325 296 275 349 270 267 277 49 16 341 308 316 281 282 265 321 153 10 57 58 23 68 210 189 236 294 184 226 157 209 255 253 187 178 192 188 183 178 179
347 345 344 336 334 330 339 17 30 12 44 92 301 307 17 311 295 317 338 305 224 230 91 236 67 56 247 34 176 148 146 229 156 350 261 236 257 227 218 205 203 204 191 188 183
344 342 342 335 333 334 20 57 15 293 108 208 233 235 196 44 316 345 360 58 23 33 27 27 115 177 319 24 39 46 50 300 113 183 159 291 266 254 209 215 201 195 196 187 176
343 342 340 335 327 34 82 71 297 335 120 170 187 280 246 20 44 318 19 307 44 50 29 141 153 214 92 62 31 75 134 357 265 313 233 327 275 238 231 202 191 207 189 177 175
342 342 341 333 13 327 39 336 315 5 76 200 177 236 176 190 212 319 2 49 35 71 68 114 208 137 210 93 349 227 8 18 3 46 240 100 287 298 245 217 201 192 191 176 160
337 341 342 345 277 46 309 331 301 35 32 165 176 112 241 242 152 205 240 38 83 14 74 269 137 46 91 86 328 140 45 30 84 41 37 291 263 267 108 272 260 238 184 162 149
334 339 342 43 70 258 331 348 43 52 269 20 117 302 15 214 222 139 117 50 68 124 54 103 36 60 132 82 50 140 127 157 53 95 335 240 204 275 196 220 195 166 166 149 146
332 337 314 259 260 273 35 63 28 117 356 350 330 349 347 260 170 148 143 5 122 66 271 98 64 53 30 138 5 44 63 333 349 12 227 316 89 249 289 288 218 183 163 140 134
332 338 248 182 182 111 81 60 61 18 360 1 333 309 201 27 248 215 154 277 229 102 89 116 325 96 313 151 171 176 147 205 251 232 286 32 237 262 274 320 79 121 134 129 138
348 339 345 263 155 85 81 53 220 339 301 340 321 322 4 6 295 342 200 194 193 146 151 85 282 149 55 44 67 266 82 246 272 74 45 254 289 298 4 34 63 91 114 145 172
46 351 292 138 114 67 68 92 62 25 331 355 325 38 335 330 344 22 293 206 157 98 140 233 339 228 132 75 345 141 189 41 340 281 282 294 285 317 293 204 171 168 183 199 205
47 39 283 132 87 44 79 18 18 18 34 9 329 313 330 347 332 296 253 301 103 145 81 143 103 286 96 190 178 20 346 23 122 184 201 284 279 215 264 205 201 203 192 192 195
27 42 305 90 43 29 37 330 335 337 346 341 336 278 288 357 305 285 329 28 66 143 145 182 151 237 234 251 186 177 184 161 131 283 83 138 277 274 317 358 160 198 228 236 201
22 271 327 57 60 353 328 345 355 3 6 7 301 334 352 314 319 321 357 3 48 10 168 127 264 348 333 26 117 223 220 133 109 75 212 150 264 333 347 41 69 128 256 249 245
50 21 337 34 77 48 345 357 347 15 11 330 266 312 359 294 268 286 283 19 360 333 318 328 246 213 228 237 138 248 212 216 167 164 218 225 260 300 323 84 43 285 249 246 256
26 25 129 328 336 346 46 18 9 360 356 319 337 25 338 296 300 273 330 319 277 271 267 170 223 240 260 299 284 275 272 217 208 231 235 263 243 243 259 254 269 243 243 260 273
60 16 356 296 318 7 4 12 16 348 289 333 352 340 336 323 348 304 301 286 276 24 20 328 304 342 274 268 269 279 324 291 231 242 259 272 282 276 282 280 330 304 301 303 305
333 329 182 294 355 8 28 351 345 349 353 34 14 2 338 318 299 287 280 274 263 282 306 269 248 196 247 345 350 44 337 27 317 72 240 257 274 251 335 350 303 281 285 314 309